Tracking 32968 objects as of 17-Jan-2026
HD Live streaming from Space Station
objects crossing your sky now

DELTA 1 DEB

Track DELTA 1 DEB now!
10-day predictions


NORAD ID: 9042
Int'l Code: 1975-004DG
Perigee: 716.1 km
Apogee: 803.9 km
Inclination: 98.0 °
Period: 99.9 minutes
Semi major axis: 7130 km
RCS: 0.263 m2 (medium)
Launch date: January 22, 1975
Source: United States (US)
Launch site: AIR FORCE WESTERN TEST RANGE (AFWTR)

Note: This is SATELLITE DEBRIS
Your satellite tracking list
Your tracking list is empty




NASA's NSSDC Master Catalog

Two Line Element Set (TLE):
1 09042U 75004DG  26017.38866271  .00000223  00000-0  78826-4 0  9990
2 09042  97.9649 335.5093 0061599 159.6297 200.7371 14.41715062617924
Source of the keplerian elements: AFSPC